Lapse_Rate
5.3 5.5 5.5 5.6 5.6 5.6 5.9 6.1 6.1 5.9 5.9 5.7 5.8 5.8 5.9 6.3 6.3 6.5 6.4 6.0 5.9 6.0 6.3 6.2 6.2 6.2 6.3 6.2 5.9 6.0 5.6 5.5 5.6 5.0 4.9 4.4 4.4 3.4 2.9 2.6 2.7 2.5 2.8 2.4 2.8 3.3 4.1
5.0 5.2 5.3 5.5 5.5 5.4 5.5 5.6 5.9 6.0 6.1 5.6 5.4 5.5 5.7 5.9 6.2 6.4 6.5 6.3 6.1 6.6 6.5 6.2 6.3 6.3 6.3 6.1 6.3 5.9 5.5 5.5 5.3 5.1 4.9 4.4 4.7 3.8 2.6 2.9 2.8 3.0 3.1 3.8 4.5 5.1 6.3
5.0 5.0 5.0 5.2 5.4 5.5 5.6 5.5 5.4 5.0 4.6 5.8 5.5 5.6 5.7 5.7 6.1 6.4 6.6 6.5 6.6 6.7 6.8 6.0 6.2 6.4 6.3 5.8 5.9 5.7 5.5 5.4 5.3 5.6 5.1 4.7 5.0 4.2 3.7 4.0 4.3 4.3 4.6 5.9 6.3 6.7 6.8
4.9 4.9 5.0 5.1 5.5 5.4 5.1 4.8 4.7 4.3 4.3 4.1 4.5 5.6 5.9 5.9 6.1 6.3 6.5 6.5 6.4 6.7 6.8 6.4 6.4 6.4 6.1 6.2 5.7 5.7 5.6 5.5 5.9 5.7 5.3 5.4 6.0 5.5 5.0 5.1 5.7 5.8 5.9 6.1 6.8 6.7 7.0
4.6 4.9 5.1 4.9 4.9 4.6 4.3 4.2 4.4 4.5 4.7 4.8 4.7 4.8 5.8 6.1 5.9 6.1 6.4 6.5 6.7 6.6 6.7 6.3 6.3 6.4 6.0 6.0 5.9 5.8 5.7 5.4 5.8 5.7 5.7 5.9 6.0 5.8 5.8 5.9 6.1 6.7 6.6 6.6 6.8 6.9 7.2
4.7 4.8 4.8 4.9 4.8 4.6 4.6 4.8 5.0 5.1 5.4 5.4 5.3 4.9 5.3 5.7 5.8 6.0 6.4 6.8 6.7 6.8 6.4 6.4 6.6 6.1 5.6 5.8 5.6 5.8 5.5 5.7 5.8 5.4 5.6 6.1 6.1 6.1 5.9 6.2 7.1 7.2 6.9 7.0 6.9 7.0 6.9
4.6 4.8 4.9 4.8 4.9 5.1 5.4 5.7 5.8 5.6 5.6 5.6 5.9 5.9 5.4 5.4 5.7 6.1 6.7 6.5 6.8 6.4 6.6 6.3 6.3 6.1 5.8 5.6 5.6 5.7 5.9 6.0 6.0 5.9 6.1 6.4 6.3 6.1 6.2 6.2 6.5 6.6 6.3 6.4 6.8 6.8 6.7
4.4 5.0 4.8 4.8 4.9 5.5 6.1 6.2 6.0 5.8 6.1 6.1 6.1 6.3 6.2 5.9 6.1 6.3 6.2 5.9 6.3 6.4 6.2 6.5 6.1 5.5 5.4 5.5 5.7 5.8 6.1 6.1 6.4 6.1 6.5 6.4 6.3 6.5 6.5 6.3 6.2 6.4 6.4 6.8 6.8 6.8 6.7
4.7 4.7 4.9 5.3 5.7 6.2 6.2 6.5 6.9 7.0 7.1 7.0 7.0 7.1 7.1 6.9 6.8 6.4 6.0 6.0 6.6 6.3 6.1 6.1 5.9 5.5 5.4 5.4 5.4 6.2 6.4 6.6 6.8 6.7 6.7 6.4 6.5 6.4 6.4 6.6 6.4 6.4 6.6 7.0 6.8 6.7 6.7
5.3 5.6 6.5 6.3 6.7 6.1 6.7 7.3 7.3 7.1 7.1 7.2 7.2 7.1 7.2 7.3 7.3 7.0 6.9 6.5 6.3 6.2 6.2 5.7 5.5 5.4 5.4 5.4 6.0 6.3 6.8 6.9 7.2 6.8 6.8 6.6 6.6 6.6 6.5 6.8 6.7 6.6 7.1 6.6 6.1 6.5 6.8
5.6 6.4 6.6 6.9 6.5 7.1 7.4 7.3 7.2 7.2 7.2 7.4 7.2 7.3 7.1 7.3 7.7 7.6 6.9 6.4 5.9 6.1 6.7 5.7 5.4 5.5 5.6 5.9 6.0 6.7 7.2 7.5 7.0 6.7 6.5 6.6 6.5 6.6 6.8 6.9 6.8 6.6 6.8 6.6 6.4 6.5 6.4
6.3 6.6 7.1 6.5 7.0 7.6 7.6 7.3 7.3 7.6 7.4 7.4 7.2 7.2 7.1 7.1 7.7 7.8 7.2 6.6 6.2 6.0 6.8 5.5 5.4 5.5 5.7 5.8 6.4 7.1 7.3 7.2 6.8 6.6 6.4 6.6 6.6 6.7 6.6 6.6 6.6 6.4 6.6 6.4 6.3 6.3 6.8
6.1 6.8 6.8 6.6 7.4 7.6 7.5 7.4 7.3 7.3 7.4 7.5 7.5 7.2 7.1 7.4 7.6 7.5 7.5 6.9 6.2 6.3 5.8 5.4 5.3 5.8 5.9 6.0 6.3 6.8 6.9 6.6 6.8 6.8 6.6 6.6 6.7 6.7 6.7 6.5 6.6 6.4 6.4 6.7 6.7 6.8 6.7
6.5 6.7 6.8 6.9 7.6 7.7 7.7 7.3 7.3 7.3 7.2 7.3 7.4 7.3 7.3 7.6 7.5 7.0 7.2 6.4 6.1 5.7 5.5 5.5 5.9 5.8 5.9 5.8 6.2 6.3 6.5 7.0 7.1 6.6 6.8 7.1 7.0 6.8 6.5 6.2 6.5 6.6 6.5 6.5 7.8 7.3 6.5
6.4 6.6 6.8 7.0 7.2 7.2 7.3 7.3 7.4 7.7 7.8 7.8 7.6 7.5 7.5 7.7 7.3 6.6 6.2 6.0 6.1 5.9 5.5 5.6 5.9 5.8 6.0 6.0 6.3 6.4 6.7 6.9 6.7 6.5 6.4 6.8 6.8 6.7 6.4 6.3 6.5 6.5 6.7 6.7 7.6 7.9 7.4
6.5 6.6 6.7 6.7 7.0 6.9 6.9 7.3 7.4 7.8 7.9 7.8 7.5 7.6 7.2 6.8 6.3 5.7 5.6 5.8 5.9 5.8 5.5 6.2 6.2 6.2 6.2 6.4 6.4 6.3 6.6 6.5 6.6 6.7 6.7 6.7 6.7 6.4 6.0 6.3 6.6 6.3 6.4 6.5 6.8 7.9 7.2
6.7 6.7 6.6 6.2 6.5 6.7 7.0 7.1 7.4 7.8 7.7 7.2 6.9 6.2 5.9 5.9 5.7 5.6 5.4 5.7 5.6 5.8 6.1 6.0 6.2 6.5 6.8 6.7 6.3 6.9 6.7 7.0 6.7 6.6 6.5 6.5 6.4 6.3 6.2 6.3 6.4 6.3 6.5 6.5 6.6 6.8 8.2
6.3 6.4 6.7 6.5 6.8 6.7 6.6 6.7 7.2 6.9 6.8 5.9 5.6 5.4 5.5 5.5 5.4 5.1 5.1 5.4 5.8 6.2 6.4 6.2 6.2 6.2 6.8 6.8 6.8 6.9 6.8 6.6 6.7 6.6 6.4 6.3 6.4 6.3 6.5 6.7 6.5 5.8 5.9 6.4 7.3 7.4 7.1
6.1 6.2 5.9 6.0 6.0 5.9 6.3 6.4 6.1 5.4 4.9 4.5 4.7 4.6 4.7 4.7 5.0 5.1 5.4 5.6 5.7 6.2 6.2 6.1 6.2 6.1 6.2 6.6 6.7 6.7 6.5 6.7 6.7 6.7 6.5 6.7 6.7 6.6 6.9 7.0 6.6 6.0 6.0 6.2 6.6 6.6 6.2
4.1 4.2 4.1 4.1 4.1 3.9 3.9 4.1 4.3 4.6 5.0 4.5 4.4 4.3 4.5 4.8 5.3 5.3 5.3 5.7 5.8 6.2 6.0 6.1 6.0 6.2 6.4 6.6 6.7 6.4 6.3 6.7 6.6 6.8 6.9 6.6 6.1 6.2 6.9 6.2 6.3 6.2 6.3 6.8 6.7 6.9 7.2
3.0 3.8 3.4 3.7 3.2 3.7 3.7 3.8 4.4 5.0 5.4 5.3 5.3 5.3 5.1 5.2 5.4 5.4 5.3 5.6 5.7 6.1 6.2 6.0 6.1 6.3 6.7 6.7 6.6 6.5 6.8 6.8 6.7 6.6 6.7 6.4 6.5 6.5 6.2 6.5 6.6 6.5 6.3 6.3 6.3 6.4 6.3
2.9 3.6 3.7 4.1 4.4 4.6 5.0 5.2 5.1 5.4 5.7 5.5 5.5 5.2 5.3 5.2 5.4 5.4 5.4 5.6 5.2 6.0 5.9 5.8 5.9 6.1 6.3 6.4 6.4 6.5 6.7 6.6 6.5 6.8 6.8 6.7 6.5 6.5 6.3 6.5 6.6 6.7 6.5 6.2 6.0 6.0 6.1
3.4 3.5 3.8 4.3 4.6 5.0 5.6 6.3 6.4 6.0 5.9 5.7 5.5 5.3 5.4 5.2 5.2 5.2 5.1 4.9 5.2 5.5 5.3 5.6 5.9 6.1 6.1 6.4 6.6 6.6 6.7 6.7 6.7 6.5 6.6 6.7 6.6 6.5 6.4 6.6 6.2 6.8 6.3 6.4 6.5 6.3 6.3
4.0 3.5 3.4 4.6 5.1 6.0 6.4 6.6 6.6 5.8 5.6 5.6 5.5 5.3 5.0 5.0 5.2 4.9 4.5 4.6 4.8 5.1 5.2 5.5 5.7 5.9 6.2 6.4 6.3 6.4 6.4 6.5 6.6 6.6 6.5 6.4 6.5 6.7 6.5 6.7 7.0 6.5 6.5 6.5 6.4 6.5 6.5
4.3 4.1 4.2 4.6 5.6 6.1 6.4 6.6 6.6 6.4 6.1 5.8 5.4 5.2 4.9 4.6 4.5 4.4 4.0 3.9 4.1 4.4 4.8 5.2 5.6 5.8 5.9 6.1 6.0 6.1 6.1 6.0 6.3 6.3 6.3 6.4 6.3 6.3 6.7 7.0 6.5 6.6 6.5 6.5 6.6 6.6 6.6
4.3 4.6 4.5 4.4 5.4 5.9 6.1 6.2 6.3 5.9 5.8 5.5 5.5 4.7 4.4 4.5 4.5 4.4 3.7 3.1 3.4 3.6 3.9 4.3 4.6 4.9 5.1 5.3 5.3 5.8 6.4 5.9 5.8 5.7 6.0 6.1 6.1 6.1 5.9 6.4 6.7 6.2 6.5 6.4 6.2 6.2 6.5
4.1 4.0 4.5 4.7 4.2 4.7 5.4 5.7 5.9 5.6 5.3 5.1 4.5 4.5 4.5 4.8 4.8 4.6 4.1 3.3 3.3 3.2 3.4 3.6 3.6 3.7 3.9 4.1 4.5 4.8 5.1 4.8 5.0 4.7 4.4 4.6 4.6 4.9 5.2 5.4 5.5 5.8 5.8 5.7 5.5 5.8 5.7
4.5 4.0 4.2 4.8 5.0 4.3 4.4 4.8 5.3 5.0 4.7 4.5 4.3 4.3 4.5 4.6 4.7 4.6 4.3 3.6 3.3 3.4 3.2 3.5 3.4 3.5 3.7 3.8 3.9 4.1 4.2 4.1 4.2 4.2 4.1 4.3 4.4 4.5 4.6 4.7 5.0 5.1 5.1 4.9 5.3 5.2 5.2
4.7 4.5 4.3 4.3 5.2 4.6 4.3 4.3 4.5 4.4 4.3 4.4 4.2 4.1 4.4 4.6 4.4 4.4 4.2 4.0 3.7 3.5 3.4 3.5 3.5 3.6 3.6 3.8 4.0 4.0 4.0 4.2 4.0 4.6 4.3 4.2 4.2 4.6 4.3 4.8 4.8 4.9 5.0 4.9 5.0 5.0 4.9
Wind_Speed
24 25 25 25 26 25 22 21 20 19 19 21 22 22 23 24 24 29 28 17 11 10 7 6 4 8 6 6 6 11 10 8 3 6 8 9 9 11 13 9 14 21 20 21 22 21 22
27 27 28 28 27 28 25 22 21 19 21 20 20 22 22 24 25 28 34 17 11 7 6 4 6 11 8 8 5 8 7 4 5 6 10 10 7 9 10 16 14 14 16 18 21 21 20
28 28 26 27 27 28 27 24 24 20 20 20 21 22 22 24 25 25 33 13 10 9 2 5 8 8 7 8 2 7 6 5 3 6 9 9 7 8 3 10 17 16 18 18 22 20 23
28 29 30 30 30 29 28 25 24 24 19 18 22 20 21 24 23 29 18 15 11 8 6 7 9 7 5 5 3 7 8 6 5 4 4 4 8 10 5 11 12 13 9 13 18 22 22
29 30 30 32 30 30 28 28 26 24 21 17 21 20 21 22 26 27 12 16 8 9 8 9 7 5 4 5 5 7 6 5 6 3 3 2 6 5 7 10 10 13 13 13 17 21 19
29 29 30 31 32 32 30 27 25 24 23 16 17 19 19 20 20 17 10 7 7 11 6 6 3 3 6 3 5 2 4 4 6 3 4 4 5 4 8 7 8 8 9 15 13 8 22
27 29 31 32 32 32 32 30 26 24 23 20 17 17 18 20 21 13 10 6 4 4 6 7 7 3 4 4 2 6 5 6 8 6 5 3 5 9 13 15 17 15 14 14 12 13 19
26 28 31 32 34 35 31 30 30 26 24 21 20 15 15 19 17 15 4 3 2 1 4 14 8 9 1 1 3 6 4 6 9 9 9 3 10 15 10 15 16 13 14 15 4 3 10
27 26 31 39 37 37 36 31 28 28 22 21 17 11 9 7 8 3 3 4 3 6 2 6 9 6 5 6 3 9 7 4 9 10 10 12 13 3 8 7 12 13 14 14 5 4 8
32 22 39 39 37 34 34 30 31 25 26 20 15 11 6 1 2 3 1 6 4 3 2 8 7 5 6 3 4 5 4 4 3 7 10 10 6 6 7 8 7 12 15 5 4 5 2
20 30 32 33 35 34 32 32 31 22 20 22 6 13 7 5 2 3 4 6 6 3 4 7 4 3 5 5 5 8 4 4 7 6 4 4 4 4 7 2 5 6 3 4 12 11 4
26 32 33 36 35 36 33 31 31 23 13 9 13 13 9 5 3 3 7 3 2 3 3 4 5 7 8 7 5 5 4 4 4 5 6 13 1 3 4 2 5 13 9 10 10 11 1
29 33 35 38 36 32 33 31 22 13 10 1 5 10 6 2 1 8 7 2 3 4 5 6 5 6 5 5 7 5 6 8 4 4 4 4 3 3 2 3 4 10 9 3 3 2 3
32 33 36 35 30 31 24 12 9 4 5 6 8 7 3 3 6 9 3 1 5 7 3 2 5 7 2 7 4 6 5 7 7 7 6 2 3 4 6 1 2 2 2 4 2 1 1
31 33 33 30 29 22 22 12 13 12 10 10 7 2 2 3 7 2 2 4 6 4 2 5 9 4 3 4 1 6 6 2 1 1 4 3 2 1 4 3 3 1 4 7 3 6 4
28 29 28 26 25 21 18 14 10 10 8 6 2 3 3 3 10 4 2 5 4 4 3 7 2 2 4 6 5 6 6 1 1 2 4 5 2 4 3 3 8 5 8 4 3 1 5
27 27 24 23 20 19 18 14 7 7 6 6 1 2 5 10 6 2 2 3 3 3 3 2 3 4 5 8 7 1 2 2 3 2 3 4 3 2 4 2 6 1 3 4 3 3 2
26 24 24 22 19 19 15 11 8 7 4 4 2 3 3 8 3 1 2 3 3 6 3 3 3 3 4 5 2 2 4 2 3 5 2 3 4 4 2 2 1 4 7 6 1 4 7
24 22 21 17 18 17 10 13 7 6 3 1 2 3 4 2 2 2 2 3 3 4 2 3 1 2 2 2 1 4 3 0 3 4 8 6 3 1 1 3 1 5 11 9 5 5 5
23 21 20 20 15 11 8 1 4 2 2 1 1 3 2 2 3 5 2 2 3 2 3 4 3 3 4 4 2 4 7 2 1 3 5 5 6 7 7 5 4 5 13 15 6 5 9
23 20 19 20 21 18 17 9 14 15 8 2 1 3 2 2 2 5 4 2 2 3 2 2 2 1 2 3 6 3 2 4 2 1 0 3 4 4 8 7 6 7 10 13 11 6 7
22 22 22 22 23 22 21 17 19 21 14 2 3 3 2 4 6 5 1 3 1 0 3 1 1 3 3 7 7 4 2 2 4 3 4 3 3 1 7 7 6 7 7 9 11 12 12
23 23 25 26 24 21 20 18 15 31 18 3 2 0 3 2 2 3 3 2 4 2 2 4 5 1 6 7 7 7 4 5 4 4 3 4 1 3 3 5 0 4 6 5 5 6 5
23 24 26 28 25 16 10 12 33 36 16 2 1 3 3 3 4 5 2 2 3 3 3 4 8 3 3 2 6 7 8 7 6 7 5 1 2 3 2 4 1 3 2 2 3 3 3
21 24 27 28 22 4 12 22 29 28 14 2 1 2 1 3 5 5 3 4 2 2 3 3 5 4 1 4 2 1 2 1 4 5 5 4 1 1 2 0 0 3 4 2 2 2 3
22 25 25 26 17 1 12 23 21 14 8 2 2 3 3 5 5 1 7 2 2 1 3 3 3 1 4 2 1 1 1 4 0 0 3 3 3 3 1 1 3 5 5 3 1 4 9
21 24 27 20 14 8 13 16 13 7 5 2 2 4 2 3 2 1 6 4 0 1 2 3 3 2 2 2 1 1 1 2 2 2 2 2 2 4 4 2 2 4 6 3 3 3 8
20 21 24 18 8 11 13 14 12 6 5 1 3 5 3 2 4 1 3 2 3 2 3 4 2 2 2 2 2 1 2 1 3 2 2 3 2 3 3 3 4 9 5 4 3 6 7
17 18 20 16 1 7 9 8 3 4 4 1 2 2 6 3 4 3 3 2 3 2 2 2 2 1 3 1 1 1 2 1 3 2 2 3 3 3 4 1 1 10 4 4 1 6 5
Wind_Direction
332 331 328 325 320 313 310 311 313 313 316 321 322 326 327 325 319 317 326 210 193 205 194 243 212 167 223 231 244 143 167 136 209 224 242 263 265 266 253 258 259 263 252 255 262 262 261
335 333 331 327 320 315 315 306 304 305 306 312 316 320 323 324 319 318 323 198 184 192 192 191 174 179 235 249 90 157 183 174 250 252 258 263 239 250 287 272 252 267 270 262 254 253 249
333 331 324 318 316 314 315 314 307 302 299 305 308 316 319 322 319 315 315 164 184 165 157 187 170 208 237 237 176 166 184 234 255 262 278 296 274 207 247 257 258 262 274 265 252 253 245
331 330 326 321 316 312 311 311 305 304 300 299 301 310 316 322 323 318 287 154 150 150 177 181 182 212 255 134 235 215 230 246 225 251 267 320 274 191 229 281 275 256 268 268 259 242 242
330 327 326 321 321 317 309 306 305 307 303 293 292 305 313 321 324 329 147 131 149 141 174 169 190 235 254 131 204 223 217 219 191 234 229 133 147 200 208 231 269 225 257 250 280 259 218
326 324 321 319 316 314 312 309 305 299 301 296 289 299 307 315 319 328 118 129 125 126 156 155 88 229 211 195 164 183 187 218 241 186 208 177 229 268 234 224 247 312 264 291 271 231 213
322 319 319 319 315 315 313 311 304 303 300 296 297 292 298 310 302 289 130 105 177 101 219 203 178 230 118 114 181 198 164 220 225 220 217 207 252 232 246 245 277 283 283 276 282 273 190
317 318 319 319 314 309 304 300 306 304 302 305 299 285 292 325 323 183 183 206 140 59 205 232 250 221 267 330 209 174 185 222 202 235 235 183 245 254 268 263 257 273 271 276 272 260 193
311 313 341 328 310 314 314 310 311 303 293 296 306 273 289 341 64 42 267 210 131 227 168 178 211 230 221 203 232 170 202 225 250 254 236 240 280 223 233 240 234 244 251 262 338 220 242
308 331 342 320 317 320 316 319 313 305 300 290 304 265 262 160 226 137 230 182 240 243 261 149 178 178 171 209 222 165 200 266 224 268 249 266 277 289 304 250 228 264 245 249 198 277 140
352 336 325 324 325 323 313 311 312 316 312 291 256 281 219 235 332 200 54 162 233 214 233 132 134 127 150 205 129 183 172 206 271 254 242 271 286 350 297 238 317 269 302 178 247 272 272
340 333 336 331 328 320 314 310 306 314 321 345 225 219 184 209 211 29 111 126 226 219 166 128 128 174 169 190 172 132 213 204 294 267 250 265 302 226 313 315 256 288 257 227 254 263 356
343 345 339 334 336 330 330 323 338 308 301 260 103 180 193 155 28 134 129 64 226 272 168 132 150 176 196 164 174 188 202 210 238 240 234 191 228 353 297 332 271 251 213 192 203 262 16
351 346 341 341 341 344 2 38 8 307 73 105 144 153 191 248 118 143 102 165 245 75 60 108 139 142 196 146 142 184 214 231 220 259 286 269 188 12 24 271 292 242 268 318 324 76 325
350 346 350 356 357 4 19 21 28 78 95 121 131 176 211 209 166 104 169 242 20 60 101 128 137 153 149 162 324 195 224 243 3 258 305 335 126 298 247 316 313 33 295 335 312 93 54
350 350 359 4 4 12 11 22 57 96 101 122 138 182 105 121 150 143 255 312 55 342 358 182 69 145 168 153 187 234 201 88 79 34 345 10 264 352 296 214 248 241 331 292 241 4 67
348 355 3 2 360 8 10 21 55 99 64 360 141 106 21 133 135 83 255 33 34 295 294 190 317 132 112 149 251 155 52 85 23 39 39 315 284 89 232 27 28 133 339 251 287 326 83
351 357 359 7 6 9 17 20 100 106 83 12 17 81 13 143 93 222 298 44 338 327 196 283 298 31 141 146 104 105 82 58 215 303 294 190 346 40 349 334 292 282 16 7 331 54 67
351 355 350 359 2 1 19 35 60 118 45 125 53 48 58 352 138 156 34 54 291 344 201 350 313 346 241 120 113 91 97 355 304 319 3 358 15 229 23 207 141 34 13 17 33 30 351
348 351 345 342 341 330 316 237 129 172 117 207 178 105 47 310 279 136 83 44 297 58 314 333 344 140 161 87 11 133 127 100 358 14 326 278 45 39 57 52 324 9 20 34 31 57 87
346 344 340 335 330 331 321 267 206 186 192 269 339 84 184 171 155 100 73 304 229 22 264 330 156 262 87 105 103 89 66 131 157 159 76 0 59 20 60 46 53 52 41 45 47 62 101
345 340 334 330 332 335 334 326 189 200 176 245 137 145 81 120 106 97 227 188 64 253 329 2 326 96 330 57 2 141 137 297 17 43 29 29 130 182 68 46 57 58 54 68 69 78 99
342 339 331 331 328 332 330 320 212 172 166 172 194 223 130 69 112 174 182 75 125 321 100 25 340 175 69 36 49 56 49 49 45 358 34 2 59 1 47 9 308 121 19 46 82 53 126
343 337 332 331 329 329 19 67 139 156 187 65 161 186 165 143 191 207 161 95 121 25 350 22 9 350 56 134 110 91 81 76 62 46 5 89 70 359 352 285 213 87 69 348 84 94 88
340 338 337 335 336 22 120 132 149 171 213 295 73 290 271 118 195 231 171 124 122 95 46 33 19 4 39 296 175 170 121 203 47 36 16 356 305 77 280 262 350 183 195 170 219 172 194
343 338 340 340 338 218 146 162 184 208 190 177 58 311 291 146 182 93 184 172 165 92 133 51 68 168 321 296 276 304 360 13 307 142 9 340 305 279 330 286 238 71 135 131 222 233 171
344 341 343 354 13 107 144 135 134 148 160 134 83 349 280 108 104 269 175 177 135 100 86 120 155 247 229 291 270 324 63 329 268 268 221 193 265 237 218 279 284 135 139 167 217 81 144
336 343 343 352 35 88 116 119 132 112 112 90 70 9 320 82 114 20 354 168 171 251 189 123 162 218 235 259 287 71 289 72 272 336 297 228 234 217 213 240 245 142 119 216 74 123 134
333 338 339 343 58 101 99 120 167 130 90 27 91 60 27 45 91 84 82 54 23 19 325 184 32 359 18 279 264 295 231 232 321 280 195 250 249 319 244 4 33 186 6 77 141 157 156